Time,TemperatureF,DewpointF,PressureIn,WindDirection,WindDirectionDegrees,WindSpeedMPH,WindSpeedGustMPH,Humidity,HourlyPrecipIn,Conditions,Clouds,dailyrainin,SoftwareType,DateUTC
2013-09-21 00:01:00,67.8,67.8,29.75,West,266,0.0,0.0,100,0.47,,---,1.27,VWS V14.01,2013-09-21 04:01:00,
2013-09-21 00:02:00,67.8,67.8,29.75,West,267,0.0,0.0,100,0.13,,---,0.00,VWS V14.01,2013-09-21 04:02:00,
2013-09-21 00:07:00,67.8,67.8,29.75,West,267,0.0,0.0,100,0.14,,---,0.01,VWS V14.01,2013-09-21 04:07:00,
2013-09-21 00:12:00,67.8,67.8,29.75,West,267,0.0,0.0,100,0.14,,---,0.01,VWS V14.01,2013-09-21 04:12:00,
2013-09-21 00:17:00,67.9,67.9,29.75,West,266,0.0,0.0,100,0.15,,---,0.02,VWS V14.01,2013-09-21 04:17:00,
2013-09-21 00:22:00,67.9,67.9,29.75,West,269,0.0,0.0,100,0.17,,---,0.04,VWS V14.01,2013-09-21 04:22:00,
2013-09-21 00:27:00,67.9,67.9,29.75,WSW,258,0.0,0.0,100,0.21,,---,0.08,VWS V14.01,2013-09-21 04:27:00,
2013-09-21 00:32:00,67.9,67.9,29.75,West,259,0.0,0.0,100,0.15,,---,0.10,VWS V14.01,2013-09-21 04:32:00,
2013-09-21 00:37:00,67.9,67.9,29.75,West,262,0.0,0.0,100,0.18,,---,0.13,VWS V14.01,2013-09-21 04:37:00,
2013-09-21 00:42:00,67.8,67.8,29.75,West,260,0.0,0.0,100,0.25,,---,0.20,VWS V14.01,2013-09-21 04:42:00,
2013-09-21 00:47:00,67.8,67.8,29.75,West,259,0.0,0.0,100,0.30,,---,0.25,VWS V14.01,2013-09-21 04:47:00,
2013-09-21 00:52:00,67.7,67.7,29.75,WNW,289,0.0,2.0,100,0.39,,---,0.34,VWS V14.01,2013-09-21 04:52:00,
2013-09-21 00:57:00,67.5,67.5,29.75,West,263,0.0,2.0,100,0.44,,---,0.39,VWS V14.01,2013-09-21 04:57:00,
2013-09-21 01:02:00,67.3,67.3,29.74,West,270,0.0,1.0,100,0.48,,---,0.48,VWS V14.01,2013-09-21 05:02:00,
2013-09-21 01:07:00,67.2,67.2,29.74,West,260,0.0,1.0,100,0.52,,---,0.52,VWS V14.01,2013-09-21 05:07:00,
2013-09-21 01:12:00,67.1,67.1,29.74,West,271,0.0,2.0,100,0.54,,---,0.54,VWS V14.01,2013-09-21 05:12:00,
2013-09-21 01:17:00,67.1,67.1,29.74,West,273,0.0,2.0,100,0.55,,---,0.55,VWS V14.01,2013-09-21 05:17:00,
2013-09-21 01:22:00,67.1,67.1,29.74,West,262,1.0,2.0,100,0.56,,---,0.56,VWS V14.01,2013-09-21 05:22:00,
2013-09-21 01:27:00,67.1,67.1,29.74,West,262,0.0,2.0,100,0.57,,---,0.57,VWS V14.01,2013-09-21 05:27:00,
2013-09-21 01:32:00,67.0,67.0,29.74,WSW,249,0.0,1.0,100,0.48,,---,0.58,VWS V14.01,2013-09-21 05:32:00,
2013-09-21 01:37:00,66.9,66.9,29.74,West,278,0.0,2.0,100,0.49,,---,0.59,VWS V14.01,2013-09-21 05:37:00,
2013-09-21 01:42:00,66.9,66.9,29.74,West,267,0.0,2.0,100,0.51,,---,0.61,VWS V14.01,2013-09-21 05:42:00,
2013-09-21 01:47:00,66.9,66.9,29.74,West,270,0.0,2.0,100,0.53,,---,0.63,VWS V14.01,2013-09-21 05:47:00,
2013-09-21 01:52:00,66.8,66.8,29.74,West,280,0.0,2.0,100,0.55,,---,0.65,VWS V14.01,2013-09-21 05:52:00,
2013-09-21 01:57:00,66.8,66.8,29.74,West,278,0.0,2.0,100,0.57,,---,0.67,VWS V14.01,2013-09-21 05:57:00,
2013-09-21 02:02:00,66.8,66.8,29.74,West,278,0.0,0.0,100,0.21,,---,0.68,VWS V14.01,2013-09-21 06:02:00,
2013-09-21 02:07:00,66.8,66.8,29.74,West,278,0.0,0.0,100,0.22,,---,0.69,VWS V14.01,2013-09-21 06:07:00,
2013-09-21 02:12:00,66.8,66.8,29.74,West,278,0.0,0.0,100,0.23,,---,0.70,VWS V14.01,2013-09-21 06:12:00,
2013-09-21 02:17:00,66.8,66.8,29.74,West,278,0.0,0.0,100,0.23,,---,0.70,VWS V14.01,2013-09-21 06:17:00,
2013-09-21 02:22:00,66.8,66.8,29.74,West,278,0.0,0.0,100,0.24,,---,0.71,VWS V14.01,2013-09-21 06:22:00,
2013-09-21 02:27:00,66.8,66.8,29.73,West,278,0.0,0.0,100,0.24,,---,0.71,VWS V14.01,2013-09-21 06:27:00,
2013-09-21 02:32:00,66.9,66.9,29.73,West,278,0.0,0.0,100,0.14,,---,0.72,VWS V14.01,2013-09-21 06:32:00,
2013-09-21 02:37:00,66.8,66.8,29.73,West,278,0.0,0.0,100,0.14,,---,0.72,VWS V14.01,2013-09-21 06:37:00,
2013-09-21 02:42:00,66.9,66.9,29.73,West,278,0.0,0.0,100,0.14,,---,0.72,VWS V14.01,2013-09-21 06:42:00,
2013-09-21 02:47:00,66.9,66.9,29.73,West,278,0.0,0.0,100,0.15,,---,0.73,VWS V14.01,2013-09-21 06:47:00,
2013-09-21 02:52:00,66.9,66.9,29.73,West,278,0.0,0.0,100,0.15,,---,0.73,VWS V14.01,2013-09-21 06:52:00,
2013-09-21 02:58:00,66.9,66.9,29.73,West,278,0.0,0.0,100,0.16,,---,0.74,VWS V14.01,2013-09-21 06:58:00,
2013-09-21 03:03:00,66.9,66.9,29.72,West,280,0.0,0.0,100,0.06,,---,0.74,VWS V14.01,2013-09-21 07:03:00,
2013-09-21 03:08:00,66.8,66.8,29.72,West,278,0.0,0.0,100,0.07,,---,0.75,VWS V14.01,2013-09-21 07:08:00,
2013-09-21 03:13:00,66.8,66.8,29.72,West,278,0.0,0.0,100,0.07,,---,0.75,VWS V14.01,2013-09-21 07:13:00,
2013-09-21 03:18:00,66.8,66.8,29.72,West,278,0.0,0.0,100,0.08,,---,0.76,VWS V14.01,2013-09-21 07:18:00,
2013-09-21 03:23:00,66.8,66.8,29.72,West,278,0.0,0.0,100,0.08,,---,0.76,VWS V14.01,2013-09-21 07:23:00,
2013-09-21 03:28:00,66.8,66.8,29.72,West,278,0.0,0.0,100,0.08,,---,0.76,VWS V14.01,2013-09-21 07:28:00,
2013-09-21 03:33:00,66.8,66.8,29.71,West,278,0.0,0.0,100,0.06,,---,0.77,VWS V14.01,2013-09-21 07:33:00,
2013-09-21 03:38:00,66.8,66.8,29.71,West,278,0.0,0.0,100,0.06,,---,0.77,VWS V14.01,2013-09-21 07:38:00,
2013-09-21 03:43:00,66.8,66.8,29.71,West,278,0.0,0.0,100,0.07,,---,0.78,VWS V14.01,2013-09-21 07:43:00,
2013-09-21 03:48:00,66.8,66.8,29.71,West,278,0.0,0.0,100,0.09,,---,0.80,VWS V14.01,2013-09-21 07:48:00,
2013-09-21 03:53:00,66.8,66.8,29.71,NW,313,0.0,0.0,100,0.10,,---,0.81,VWS V14.01,2013-09-21 07:53:00,
2013-09-21 03:58:00,66.7,66.7,29.71,NW,322,0.0,0.0,100,0.12,,---,0.83,VWS V14.01,2013-09-21 07:58:00,
2013-09-21 04:03:00,66.7,66.7,29.70,NW,322,0.0,0.0,100,0.10,,---,0.84,VWS V14.01,2013-09-21 08:03:00,
2013-09-21 04:08:00,66.7,66.7,29.70,NW,316,0.0,0.0,100,0.10,,---,0.84,VWS V14.01,2013-09-21 08:08:00,
2013-09-21 04:13:00,66.6,66.6,29.70,NW,304,0.0,0.0,100,0.10,,---,0.84,VWS V14.01,2013-09-21 08:13:00,
2013-09-21 04:18:00,66.6,66.6,29.70,NW,304,0.0,0.0,100,0.11,,---,0.85,VWS V14.01,2013-09-21 08:18:00,
2013-09-21 04:23:00,66.5,66.5,29.70,West,276,0.0,0.0,100,0.11,,---,0.85,VWS V14.01,2013-09-21 08:23:00,
2013-09-21 04:28:00,66.5,66.5,29.70,WSW,257,0.0,0.0,100,0.11,,---,0.85,VWS V14.01,2013-09-21 08:28:00,
2013-09-21 04:33:00,66.4,66.4,29.70,WSW,257,0.0,0.0,100,0.09,,---,0.86,VWS V14.01,2013-09-21 08:33:00,
2013-09-21 04:38:00,66.4,66.4,29.69,WSW,257,0.0,0.0,100,0.10,,---,0.87,VWS V14.01,2013-09-21 08:38:00,
2013-09-21 04:43:00,66.4,66.4,29.69,WSW,257,0.0,0.0,100,0.10,,---,0.87,VWS V14.01,2013-09-21 08:43:00,
2013-09-21 04:48:00,66.3,66.3,29.69,WSW,257,0.0,0.0,100,0.11,,---,0.88,VWS V14.01,2013-09-21 08:48:00,
2013-09-21 04:53:00,66.2,66.2,29.69,WSW,257,0.0,0.0,100,0.11,,---,0.88,VWS V14.01,2013-09-21 08:53:00,
2013-09-21 04:58:00,66.0,66.0,29.68,WNW,288,0.0,0.0,100,0.12,,---,0.89,VWS V14.01,2013-09-21 08:58:00,
2013-09-21 05:03:00,65.9,65.9,29.68,WNW,288,0.0,0.0,100,0.07,,---,0.90,VWS V14.01,2013-09-21 09:03:00,
2013-09-21 05:08:00,66.0,66.0,29.68,WNW,288,0.0,0.0,100,0.07,,---,0.90,VWS V14.01,2013-09-21 09:08:00,
2013-09-21 05:13:00,65.9,65.9,29.68,WNW,288,0.0,0.0,100,0.08,,---,0.91,VWS V14.01,2013-09-21 09:13:00,
2013-09-21 05:18:00,65.9,65.9,29.68,WNW,288,0.0,0.0,100,0.08,,---,0.91,VWS V14.01,2013-09-21 09:18:00,
2013-09-21 05:23:00,65.9,65.9,29.68,WNW,288,0.0,0.0,100,0.08,,---,0.91,VWS V14.01,2013-09-21 09:23:00,
2013-09-21 05:28:00,65.9,65.9,29.68,WNW,288,0.0,0.0,100,0.09,,---,0.92,VWS V14.01,2013-09-21 09:28:00,
2013-09-21 05:34:00,65.8,65.8,29.68,WNW,288,0.0,0.0,100,0.06,,---,0.92,VWS V14.01,2013-09-21 09:34:00,
2013-09-21 05:39:00,65.8,65.8,29.68,WNW,288,0.0,0.0,100,0.07,,---,0.93,VWS V14.01,2013-09-21 09:39:00,
2013-09-21 05:44:00,65.8,65.8,29.68,WNW,288,0.0,0.0,100,0.07,,---,0.93,VWS V14.01,2013-09-21 09:44:00,
2013-09-21 05:49:00,65.8,65.8,29.68,West,276,0.0,0.0,100,0.07,,---,0.93,VWS V14.01,2013-09-21 09:49:00,
2013-09-21 05:54:00,65.8,65.8,29.68,West,276,0.0,0.0,100,0.08,,---,0.94,VWS V14.01,2013-09-21 09:54:00,
2013-09-21 05:59:00,65.7,65.7,29.67,West,276,0.0,0.0,100,0.08,,---,0.94,VWS V14.01,2013-09-21 09:59:00,
2013-09-21 06:04:00,65.7,65.7,29.67,West,276,0.0,0.0,100,0.04,,---,0.94,VWS V14.01,2013-09-21 10:04:00,
2013-09-21 06:09:00,65.7,65.7,29.66,West,274,0.0,0.0,100,0.05,,---,0.95,VWS V14.01,2013-09-21 10:09:00,
2013-09-21 06:14:00,65.7,65.7,29.66,West,274,0.0,0.0,100,0.05,,---,0.95,VWS V14.01,2013-09-21 10:14:00,
2013-09-21 06:19:00,65.7,65.7,29.65,West,274,0.0,0.0,100,0.05,,---,0.95,VWS V14.01,2013-09-21 10:19:00,
2013-09-21 06:24:00,65.8,65.8,29.66,West,274,0.0,0.0,100,0.05,,---,0.95,VWS V14.01,2013-09-21 10:24:00,
2013-09-21 06:29:00,65.8,65.8,29.66,West,274,0.0,0.0,100,0.05,,---,0.95,VWS V14.01,2013-09-21 10:29:00,
2013-09-21 06:34:00,65.8,65.8,29.66,West,274,0.0,0.0,100,0.03,,---,0.95,VWS V14.01,2013-09-21 10:34:00,
2013-09-21 06:39:00,65.8,65.8,29.67,WSW,258,0.0,0.0,100,0.03,,---,0.95,VWS V14.01,2013-09-21 10:39:00,
2013-09-21 06:44:00,65.3,65.3,29.67,West,259,1.0,3.0,100,0.04,,---,0.96,VWS V14.01,2013-09-21 10:44:00,
2013-09-21 06:49:00,64.4,64.4,29.67,WNW,291,1.0,4.0,100,0.04,,---,0.96,VWS V14.01,2013-09-21 10:49:00,
2013-09-21 06:54:00,63.7,63.7,29.67,West,264,1.0,4.0,100,0.05,,---,0.97,VWS V14.01,2013-09-21 10:54:00,
2013-09-21 06:59:00,63.3,63.3,29.68,WNW,285,1.0,4.0,100,0.06,,---,0.98,VWS V14.01,2013-09-21 10:59:00,
2013-09-21 07:04:00,62.9,62.9,29.66,NW,305,1.0,4.0,100,0.04,,---,0.98,VWS V14.01,2013-09-21 11:04:00,
2013-09-21 07:09:00,62.6,62.6,29.67,NNW,328,0.0,4.0,100,0.05,,---,0.99,VWS V14.01,2013-09-21 11:09:00,
2013-09-21 07:14:00,62.1,62.1,29.68,West,265,0.0,5.0,100,0.05,,---,0.99,VWS V14.01,2013-09-21 11:14:00,
2013-09-21 07:19:00,61.9,61.9,29.68,West,260,0.0,5.0,100,0.05,,---,0.99,VWS V14.01,2013-09-21 11:19:00,
2013-09-21 07:24:00,61.7,61.7,29.68,NW,311,1.0,5.0,100,0.05,,---,0.99,VWS V14.01,2013-09-21 11:24:00,
2013-09-21 07:29:00,61.4,61.4,29.69,WNW,284,0.0,5.0,100,0.05,,---,0.99,VWS V14.01,2013-09-21 11:29:00,
2013-09-21 07:34:00,61.3,61.3,29.68,NW,326,2.0,2.0,100,0.04,,---,0.99,VWS V14.01,2013-09-21 11:34:00,
2013-09-21 07:39:00,61.1,61.1,29.68,WNW,283,0.0,5.0,100,0.04,,---,0.99,VWS V14.01,2013-09-21 11:39:00,
2013-09-21 07:44:00,61.1,61.1,29.69,West,274,1.0,5.0,100,0.04,,---,0.99,VWS V14.01,2013-09-21 11:44:00,
2013-09-21 07:49:00,60.9,60.9,29.69,WNW,289,0.0,5.0,100,0.04,,---,0.99,VWS V14.01,2013-09-21 11:49:00,
2013-09-21 07:54:00,61.0,61.0,29.69,West,277,1.0,5.0,100,0.04,,---,0.99,VWS V14.01,2013-09-21 11:54:00,
2013-09-21 07:59:00,60.9,60.9,29.69,WNW,283,0.0,5.0,100,0.04,,---,0.99,VWS V14.01,2013-09-21 11:59:00,
2013-09-21 08:04:00,60.8,60.8,29.70,WNW,300,0.0,2.0,100,0.01,,---,0.99,VWS V14.01,2013-09-21 12:04:00,
2013-09-21 08:09:00,60.7,60.7,29.70,West,259,1.0,3.0,100,0.01,,---,0.99,VWS V14.01,2013-09-21 12:09:00,
2013-09-21 08:14:00,60.6,60.6,29.70,NW,309,2.0,3.0,100,0.01,,---,0.99,VWS V14.01,2013-09-21 12:14:00,
2013-09-21 08:19:00,60.5,60.5,29.70,West,271,0.0,3.0,100,0.01,,---,0.99,VWS V14.01,2013-09-21 12:19:00,
2013-09-21 08:24:00,60.6,60.6,29.70,West,277,0.0,3.0,100,0.01,,---,0.99,VWS V14.01,2013-09-21 12:24:00,
2013-09-21 08:29:00,60.6,60.6,29.71,WNW,298,0.0,3.0,100,0.01,,---,0.99,VWS V14.01,2013-09-21 12:29:00,
2013-09-21 08:34:00,60.5,60.5,29.71,WNW,297,0.0,1.0,100,0.01,,---,1.00,VWS V14.01,2013-09-21 12:34:00,
2013-09-21 08:39:00,60.6,60.6,29.71,West,267,0.0,1.0,100,0.01,,---,1.00,VWS V14.01,2013-09-21 12:39:00,
2013-09-21 08:44:00,60.5,60.5,29.71,West,261,0.0,1.0,100,0.01,,---,1.00,VWS V14.01,2013-09-21 12:44:00,
2013-09-21 08:49:00,60.3,60.3,29.71,WNW,287,0.0,1.0,100,0.01,,---,1.00,VWS V14.01,2013-09-21 12:49:00,
2013-09-21 08:54:00,60.2,60.2,29.72,West,273,0.0,1.0,100,0.01,,---,1.00,VWS V14.01,2013-09-21 12:54:00,
2013-09-21 08:59:00,60.0,60.0,29.72,West,260,0.0,1.0,100,0.01,,---,1.00,VWS V14.01,2013-09-21 12:59:00,
2013-09-21 09:04:00,59.9,59.9,29.72,West,272,0.0,2.0,100,0.01,,---,1.00,VWS V14.01,2013-09-21 13:04:00,
2013-09-21 09:09:00,59.8,59.8,29.72,West,280,0.0,2.0,100,0.01,,---,1.00,VWS V14.01,2013-09-21 13:09:00,
2013-09-21 09:14:00,59.7,59.7,29.72,NW,321,0.0,2.0,100,0.01,,---,1.00,VWS V14.01,2013-09-21 13:14:00,
2013-09-21 09:19:00,59.5,59.5,29.73,WNW,298,1.0,3.0,100,0.01,,---,1.00,VWS V14.01,2013-09-21 13:19:00,
2013-09-21 09:24:00,59.5,59.5,29.73,West,264,2.0,3.0,100,0.01,,---,1.00,VWS V14.01,2013-09-21 13:24:00,
2013-09-21 09:29:00,59.4,59.4,29.73,WNW,289,1.0,3.0,100,0.01,,---,1.00,VWS V14.01,2013-09-21 13:29:00,
2013-09-21 09:34:00,59.5,59.5,29.73,WSW,257,0.0,1.0,100,0.00,,---,1.00,VWS V14.01,2013-09-21 13:34:00,
2013-09-21 09:39:00,59.5,59.5,29.73,WNW,291,0.0,1.0,100,0.00,,---,1.00,VWS V14.01,2013-09-21 13:39:00,
2013-09-21 09:44:00,59.4,59.4,29.74,West,263,0.0,2.0,100,0.00,,---,1.00,VWS V14.01,2013-09-21 13:44:00,
2013-09-21 09:49:00,59.5,59.5,29.74,NW,307,0.0,2.0,100,0.00,,---,1.00,VWS V14.01,2013-09-21 13:49:00,
2013-09-21 09:54:00,59.2,58.9,29.74,NW,320,1.0,3.0,99,0.00,,---,1.00,VWS V14.01,2013-09-21 13:54:00,
2013-09-21 09:59:00,59.1,58.8,29.74,West,273,0.0,3.0,99,0.00,,---,1.00,VWS V14.01,2013-09-21 13:59:00,
2013-09-21 10:04:00,59.1,58.8,29.74,WNW,291,0.0,1.0,99,0.00,,---,1.00,VWS V14.01,2013-09-21 14:04:00,
2013-09-21 10:09:00,59.1,58.8,29.74,West,262,0.0,2.0,99,0.00,,---,1.00,VWS V14.01,2013-09-21 14:09:00,
2013-09-21 10:14:00,59.4,59.1,29.74,WNW,298,0.0,2.0,99,0.00,,---,1.00,VWS V14.01,2013-09-21 14:14:00,
2013-09-21 10:19:00,59.5,59.2,29.74,West,274,0.0,2.0,99,0.00,,---,1.00,VWS V14.01,2013-09-21 14:19:00,
2013-09-21 10:24:00,59.6,59.3,29.74,West,277,0.0,3.0,99,0.00,,---,1.00,VWS V14.01,2013-09-21 14:24:00,
2013-09-21 10:29:00,59.8,59.5,29.74,WNW,287,1.0,3.0,99,0.00,,---,1.00,VWS V14.01,2013-09-21 14:29:00,
2013-09-21 10:34:00,60.0,59.4,29.75,WNW,289,0.0,0.0,98,0.00,,---,1.00,VWS V14.01,2013-09-21 14:34:00,
2013-09-21 10:39:00,60.1,59.5,29.75,WNW,283,3.0,5.0,98,0.00,,---,1.00,VWS V14.01,2013-09-21 14:39:00,
2013-09-21 10:44:00,60.0,59.2,29.75,West,259,0.0,5.0,97,0.00,,---,1.00,VWS V14.01,2013-09-21 14:44:00,
2013-09-21 10:49:00,60.2,59.6,29.75,WNW,287,0.0,5.0,98,0.00,,---,1.00,VWS V14.01,2013-09-21 14:49:00,
2013-09-21 10:54:00,60.4,59.8,29.75,WNW,291,0.0,5.0,98,0.00,,---,1.00,VWS V14.01,2013-09-21 14:54:00,
2013-09-21 10:59:00,60.4,59.5,29.75,West,277,0.0,5.0,97,0.00,,---,1.00,VWS V14.01,2013-09-21 14:59:00,
2013-09-21 11:04:00,60.4,59.5,29.75,West,280,0.0,2.0,97,0.00,,---,1.00,VWS V14.01,2013-09-21 15:04:00,
2013-09-21 11:09:00,60.4,59.5,29.75,West,267,0.0,3.0,97,0.00,,---,1.00,VWS V14.01,2013-09-21 15:09:00,
2013-09-21 11:14:00,60.5,59.4,29.75,West,277,0.0,3.0,96,0.00,,---,1.00,VWS V14.01,2013-09-21 15:14:00,
2013-09-21 11:19:00,60.7,59.6,29.75,West,264,0.0,3.0,96,0.00,,---,1.00,VWS V14.01,2013-09-21 15:19:00,
2013-09-21 11:24:00,60.9,59.8,29.75,West,281,1.0,3.0,96,0.00,,---,1.00,VWS V14.01,2013-09-21 15:24:00,
2013-09-21 11:29:00,61.1,59.7,29.75,WNW,293,1.0,4.0,95,0.00,,---,1.00,VWS V14.01,2013-09-21 15:29:00,
2013-09-21 11:34:00,61.4,60.0,29.75,NW,309,0.0,1.0,95,0.00,,---,1.00,VWS V14.01,2013-09-21 15:34:00,
2013-09-21 11:39:00,61.7,60.0,29.75,West,269,0.0,3.0,94,0.00,,---,1.00,VWS V14.01,2013-09-21 15:39:00,
2013-09-21 11:44:00,62.1,60.1,29.75,West,274,1.0,3.0,93,0.00,,---,1.00,VWS V14.01,2013-09-21 15:44:00,
2013-09-21 11:49:00,62.2,59.5,29.76,West,273,0.0,4.0,91,0.00,,---,1.00,VWS V14.01,2013-09-21 15:49:00,
2013-09-21 11:54:00,62.9,60.5,29.75,West,280,0.0,4.0,92,0.00,,---,1.00,VWS V14.01,2013-09-21 15:54:00,
2013-09-21 11:59:00,63.6,60.3,29.76,WSW,248,2.0,4.0,89,0.00,,---,1.00,VWS V14.01,2013-09-21 15:59:00,
2013-09-21 12:04:00,63.7,60.1,29.76,West,278,1.0,2.0,88,0.00,,---,1.00,VWS V14.01,2013-09-21 16:04:00,
2013-09-21 12:09:00,64.2,60.3,29.75,NW,311,1.0,2.0,87,0.00,,---,1.00,VWS V14.01,2013-09-21 16:09:00,
2013-09-21 12:14:00,64.3,59.7,29.75,West,280,1.0,4.0,85,0.00,,---,1.00,VWS V14.01,2013-09-21 16:14:00,
2013-09-21 12:19:00,64.8,59.9,29.75,West,276,0.0,5.0,84,0.00,,---,1.00,VWS V14.01,2013-09-21 16:19:00,
2013-09-21 12:24:00,65.4,59.8,29.75,WNW,290,1.0,5.0,82,0.00,,---,1.00,VWS V14.01,2013-09-21 16:24:00,
2013-09-21 12:29:00,65.0,59.7,29.75,WSW,246,1.0,5.0,83,0.00,,---,1.00,VWS V14.01,2013-09-21 16:29:00,
2013-09-21 12:34:00,65.3,59.7,29.75,NW,308,2.0,4.0,82,0.00,,---,1.00,VWS V14.01,2013-09-21 16:34:00,
2013-09-21 12:39:00,65.7,59.4,29.76,West,281,0.0,4.0,80,0.00,,---,1.00,VWS V14.01,2013-09-21 16:39:00,
2013-09-21 12:44:00,65.7,60.1,29.75,NW,323,0.0,4.0,82,0.00,,---,1.00,VWS V14.01,2013-09-21 16:44:00,
2013-09-21 12:49:00,66.1,59.8,29.75,WSW,257,3.0,5.0,80,0.00,,---,1.00,VWS V14.01,2013-09-21 16:49:00,
2013-09-21 12:54:00,66.5,59.4,29.76,West,271,3.0,5.0,78,0.00,,---,1.00,VWS V14.01,2013-09-21 16:54:00,
2013-09-21 12:59:00,66.3,58.9,29.76,West,271,2.0,5.0,77,0.00,,---,1.00,VWS V14.01,2013-09-21 16:59:00,
2013-09-21 13:04:00,66.0,59.0,29.76,WNW,302,2.0,2.0,78,0.00,,---,1.00,VWS V14.01,2013-09-21 17:04:00,
2013-09-21 13:09:00,66.5,59.1,29.76,NW,314,0.0,4.0,77,0.00,,---,1.00,VWS V14.01,2013-09-21 17:09:00,
2013-09-21 13:14:00,66.9,59.8,29.76,WSW,239,3.0,4.0,78,0.00,,---,1.00,VWS V14.01,2013-09-21 17:14:00,
2013-09-21 13:19:00,66.9,59.8,29.76,WNW,285,0.0,4.0,78,0.00,,---,1.00,VWS V14.01,2013-09-21 17:19:00,
2013-09-21 13:24:00,67.0,58.8,29.76,WNW,302,2.0,8.0,75,0.00,,---,1.00,VWS V14.01,2013-09-21 17:24:00,
2013-09-21 13:29:00,67.3,59.1,29.76,West,279,1.0,8.0,75,0.00,,---,1.00,VWS V14.01,2013-09-21 17:29:00,
2013-09-21 13:34:00,67.8,59.2,29.76,West,271,0.0,1.0,74,0.00,,---,1.00,VWS V14.01,2013-09-21 17:34:00,
2013-09-21 13:39:00,67.9,59.3,29.76,WSW,250,4.0,5.0,74,0.00,,---,1.00,VWS V14.01,2013-09-21 17:39:00,
2013-09-21 13:44:00,67.9,58.9,29.76,WNW,295,3.0,6.0,73,0.00,,---,1.00,VWS V14.01,2013-09-21 17:44:00,
2013-09-21 13:49:00,67.8,58.8,29.75,WNW,294,3.0,6.0,73,0.00,,---,1.00,VWS V14.01,2013-09-21 17:49:00,
2013-09-21 13:54:00,68.4,58.6,29.76,West,261,2.0,7.0,71,0.00,,---,1.00,VWS V14.01,2013-09-21 17:54:00,
2013-09-21 13:59:00,68.9,59.1,29.75,NW,319,3.0,7.0,71,0.00,,---,1.00,VWS V14.01,2013-09-21 17:59:00,
2013-09-21 14:04:00,69.1,58.9,29.75,WNW,290,1.0,2.0,70,0.00,,---,1.00,VWS V14.01,2013-09-21 18:04:00,
2013-09-21 14:09:00,69.4,60.4,29.75,WSW,252,2.0,2.0,73,0.00,,---,1.00,VWS V14.01,2013-09-21 18:09:00,
2013-09-21 14:14:00,69.9,58.9,29.75,NW,305,1.0,5.0,68,0.00,,---,1.00,VWS V14.01,2013-09-21 18:14:00,
2013-09-21 14:19:00,70.3,59.2,29.75,WSW,257,6.0,6.0,68,0.00,,---,1.00,VWS V14.01,2013-09-21 18:19:00,
2013-09-21 14:24:00,70.3,58.8,29.75,NNW,345,0.0,6.0,67,0.00,,---,1.00,VWS V14.01,2013-09-21 18:24:00,
2013-09-21 14:29:00,70.6,57.0,29.75,WSW,242,3.0,6.0,62,0.00,,---,1.00,VWS V14.01,2013-09-21 18:29:00,
2013-09-21 14:34:00,70.6,57.8,29.75,NW,322,2.0,7.0,64,0.00,,---,1.00,VWS V14.01,2013-09-21 18:34:00,
2013-09-21 14:39:00,70.3,57.1,29.75,West,280,1.0,7.0,63,0.00,,---,1.00,VWS V14.01,2013-09-21 18:39:00,
2013-09-21 14:44:00,70.1,56.9,29.75,West,267,3.0,7.0,63,0.00,,---,1.00,VWS V14.01,2013-09-21 18:44:00,
2013-09-21 14:49:00,70.2,56.6,29.75,West,266,3.0,7.0,62,0.00,,---,1.00,VWS V14.01,2013-09-21 18:49:00,
2013-09-21 14:54:00,70.6,56.1,29.75,ENE,72,2.0,7.0,60,0.00,,---,1.00,VWS V14.01,2013-09-21 18:54:00,
2013-09-21 14:59:00,70.8,55.3,29.75,West,269,3.0,7.0,58,0.00,,---,1.00,VWS V14.01,2013-09-21 18:59:00,
2013-09-21 15:04:00,70.8,53.8,29.75,WNW,302,2.0,7.0,55,0.00,,---,1.00,VWS V14.01,2013-09-21 19:04:00,
2013-09-21 15:09:00,71.2,54.7,29.75,WSW,256,0.0,7.0,56,0.00,,---,1.00,VWS V14.01,2013-09-21 19:09:00,
2013-09-21 15:14:00,71.4,55.9,29.75,WNW,291,2.0,7.0,58,0.00,,---,1.00,VWS V14.01,2013-09-21 19:14:00,
2013-09-21 15:19:00,71.3,55.3,29.75,NW,308,1.0,11.0,57,0.00,,---,1.00,VWS V14.01,2013-09-21 19:19:00,
2013-09-21 15:24:00,71.3,54.8,29.75,West,273,2.0,11.0,56,0.00,,---,1.00,VWS V14.01,2013-09-21 19:24:00,
2013-09-21 15:29:00,71.2,53.7,29.74,WNW,288,1.0,11.0,54,0.00,,---,1.00,VWS V14.01,2013-09-21 19:29:00,
2013-09-21 15:34:00,71.5,55.5,29.75,North,350,1.0,2.0,57,0.00,,---,1.00,VWS V14.01,2013-09-21 19:34:00,
2013-09-21 15:39:00,71.5,56.0,29.75,NW,326,0.0,7.0,58,0.00,,---,1.00,VWS V14.01,2013-09-21 19:39:00,
2013-09-21 15:44:00,71.8,55.3,29.75,WNW,293,1.0,7.0,56,0.00,,---,1.00,VWS V14.01,2013-09-21 19:44:00,
2013-09-21 15:49:00,71.7,54.2,29.75,WSW,253,2.0,7.0,54,0.00,,---,1.00,VWS V14.01,2013-09-21 19:49:00,
2013-09-21 15:54:00,71.6,54.1,29.75,West,264,2.0,7.0,54,0.00,,---,1.00,VWS V14.01,2013-09-21 19:54:00,
2013-09-21 15:59:00,71.7,55.7,29.75,NNW,338,1.0,7.0,57,0.00,,---,1.00,VWS V14.01,2013-09-21 19:59:00,
2013-09-21 16:04:00,71.2,53.7,29.75,WNW,291,3.0,6.0,54,0.00,,---,1.00,VWS V14.01,2013-09-21 20:04:00,
2013-09-21 16:09:00,71.1,54.1,29.75,WSW,249,0.0,6.0,55,0.00,,---,1.00,VWS V14.01,2013-09-21 20:09:00,
2013-09-21 16:14:00,71.2,54.7,29.74,NNW,342,1.0,6.0,56,0.00,,---,1.00,VWS V14.01,2013-09-21 20:14:00,
2013-09-21 16:19:00,71.4,55.9,29.74,WSW,252,1.0,6.0,58,0.00,,---,1.00,VWS V14.01,2013-09-21 20:19:00,
2013-09-21 16:24:00,71.4,55.9,29.75,WNW,290,1.0,6.0,58,0.00,,---,1.00,VWS V14.01,2013-09-21 20:24:00,
2013-09-21 16:29:00,71.3,54.3,29.75,NW,317,2.0,6.0,55,0.00,,---,1.00,VWS V14.01,2013-09-21 20:29:00,
2013-09-21 16:34:00,71.5,54.5,29.74,WNW,295,1.0,3.0,55,0.00,,---,1.00,VWS V14.01,2013-09-21 20:34:00,
2013-09-21 16:39:00,71.1,54.1,29.74,WNW,283,3.0,5.0,55,0.00,,---,1.00,VWS V14.01,2013-09-21 20:39:00,
2013-09-21 16:44:00,71.1,54.6,29.74,WSW,250,6.0,7.0,56,0.00,,---,1.00,VWS V14.01,2013-09-21 20:44:00,
2013-09-21 16:49:00,71.3,53.8,29.75,West,265,2.0,7.0,54,0.00,,---,1.00,VWS V14.01,2013-09-21 20:49:00,
2013-09-21 16:54:00,70.6,53.2,29.75,WSW,256,1.0,7.0,54,0.00,,---,1.00,VWS V14.01,2013-09-21 20:54:00,
2013-09-21 16:59:00,70.2,54.3,29.75,West,265,0.0,7.0,57,0.00,,---,1.00,VWS V14.01,2013-09-21 20:59:00,
2013-09-21 17:04:00,69.7,55.2,29.75,West,278,0.0,0.0,60,0.00,,---,1.00,VWS V14.01,2013-09-21 21:04:00,
2013-09-21 17:08:00,69.7,54.8,29.75,West,267,0.0,2.0,59,0.00,,---,1.00,VWS V14.01,2013-09-21 21:08:00,
2013-09-21 17:13:00,69.7,54.8,29.75,West,280,0.0,2.0,59,0.00,,---,1.00,VWS V14.01,2013-09-21 21:13:00,
2013-09-21 17:18:00,69.2,54.3,29.75,WSW,252,1.0,2.0,59,0.00,,---,1.00,VWS V14.01,2013-09-21 21:18:00,
2013-09-21 17:24:00,69.3,56.2,29.75,West,259,0.0,2.0,63,0.00,,---,1.00,VWS V14.01,2013-09-21 21:24:00,
2013-09-21 17:29:00,69.6,55.1,29.75,West,270,0.0,2.0,60,0.00,,---,1.00,VWS V14.01,2013-09-21 21:29:00,
2013-09-21 17:34:00,70.3,55.3,29.75,WNW,290,0.0,0.0,59,0.00,,---,1.00,VWS V14.01,2013-09-21 21:34:00,
2013-09-21 17:39:00,70.7,55.2,29.75,West,273,0.0,1.0,58,0.00,,---,1.00,VWS V14.01,2013-09-21 21:39:00,
2013-09-21 17:44:00,70.7,54.2,29.75,West,268,0.0,2.0,56,0.00,,---,1.00,VWS V14.01,2013-09-21 21:44:00,
2013-09-21 17:49:00,70.5,53.6,29.75,NW,316,1.0,3.0,55,0.00,,---,1.00,VWS V14.01,2013-09-21 21:49:00,
2013-09-21 17:54:00,70.5,53.6,29.76,West,281,2.0,3.0,55,0.00,,---,1.00,VWS V14.01,2013-09-21 21:54:00,
2013-09-21 17:59:00,70.2,52.8,29.76,West,281,1.0,4.0,54,0.00,,---,1.00,VWS V14.01,2013-09-21 21:59:00,
2013-09-21 18:04:00,70.0,53.6,29.75,NW,319,0.0,0.0,56,0.00,,---,1.00,VWS V14.01,2013-09-21 22:04:00,
2013-09-21 18:09:00,70.3,53.4,29.75,West,270,1.0,2.0,55,0.00,,---,1.00,VWS V14.01,2013-09-21 22:09:00,
2013-09-21 18:14:00,70.4,53.5,29.75,West,274,0.0,4.0,55,0.00,,---,1.00,VWS V14.01,2013-09-21 22:14:00,
2013-09-21 18:19:00,70.1,53.2,29.76,West,277,0.0,4.0,55,0.00,,---,1.00,VWS V14.01,2013-09-21 22:19:00,
2013-09-21 18:24:00,69.7,54.8,29.76,West,273,1.0,5.0,59,0.00,,---,1.00,VWS V14.01,2013-09-21 22:24:00,
2013-09-21 18:29:00,68.8,54.8,29.77,WSW,258,1.0,5.0,61,0.00,,---,1.00,VWS V14.01,2013-09-21 22:29:00,
2013-09-21 18:34:00,68.1,54.6,29.76,WNW,289,3.0,4.0,62,0.00,,---,1.00,VWS V14.01,2013-09-21 22:34:00,
2013-09-21 18:39:00,68.0,55.0,29.77,NW,316,0.0,4.0,63,0.00,,---,1.00,VWS V14.01,2013-09-21 22:39:00,
2013-09-21 18:44:00,67.9,54.8,29.77,NNW,328,1.0,5.0,63,0.00,,---,1.00,VWS V14.01,2013-09-21 22:44:00,
2013-09-21 18:49:00,67.9,54.4,29.76,North,360,0.0,6.0,62,0.00,,---,1.00,VWS V14.01,2013-09-21 22:49:00,
2013-09-21 18:54:00,67.9,55.3,29.77,NE,44,7.0,7.0,64,0.00,,---,1.00,VWS V14.01,2013-09-21 22:54:00,
2013-09-21 18:59:00,67.7,54.7,29.77,NW,316,0.0,8.0,63,0.00,,---,1.00,VWS V14.01,2013-09-21 22:59:00,
2013-09-21 19:04:00,67.4,54.8,29.77,WNW,287,0.0,1.0,64,0.00,,---,1.00,VWS V14.01,2013-09-21 23:04:00,
2013-09-21 19:09:00,67.2,54.6,29.77,West,260,0.0,1.0,64,0.00,,---,1.00,VWS V14.01,2013-09-21 23:09:00,
2013-09-21 19:14:00,67.1,55.0,29.77,WSW,257,0.0,1.0,65,0.00,,---,1.00,VWS V14.01,2013-09-21 23:14:00,
2013-09-21 19:19:00,67.0,55.3,29.77,West,259,0.0,1.0,66,0.00,,---,1.00,VWS V14.01,2013-09-21 23:19:00,
2013-09-21 19:24:00,66.7,55.4,29.77,West,259,0.0,1.0,67,0.00,,---,1.00,VWS V14.01,2013-09-21 23:24:00,
2013-09-21 19:29:00,66.4,54.7,29.77,West,259,0.0,1.0,66,0.00,,---,1.00,VWS V14.01,2013-09-21 23:29:00,
2013-09-21 19:34:00,66.0,54.7,29.78,West,259,0.0,0.0,67,0.00,,---,1.00,VWS V14.01,2013-09-21 23:34:00,
2013-09-21 19:39:00,65.6,55.2,29.78,West,259,0.0,0.0,69,0.00,,---,1.00,VWS V14.01,2013-09-21 23:39:00,
2013-09-21 19:44:00,65.1,55.1,29.78,West,259,0.0,0.0,70,0.00,,---,1.00,VWS V14.01,2013-09-21 23:44:00,
2013-09-21 19:49:00,64.7,55.1,29.78,WSW,258,0.0,0.0,71,0.00,,---,1.00,VWS V14.01,2013-09-21 23:49:00,
2013-09-21 19:54:00,64.4,55.2,29.78,West,259,0.0,0.0,72,0.00,,---,1.00,VWS V14.01,2013-09-21 23:54:00,
2013-09-21 19:59:00,64.0,55.6,29.78,West,259,0.0,0.0,74,0.00,,---,1.00,VWS V14.01,2013-09-21 23:59:00,
2013-09-21 20:04:00,63.6,55.2,29.79,West,259,0.0,0.0,74,0.00,,---,1.00,VWS V14.01,2013-09-22 00:04:00,
2013-09-21 20:09:00,63.4,55.3,29.79,West,259,0.0,0.0,75,0.00,,---,1.00,VWS V14.01,2013-09-22 00:09:00,
2013-09-21 20:14:00,63.1,55.4,29.79,West,259,0.0,0.0,76,0.00,,---,1.00,VWS V14.01,2013-09-22 00:14:00,
2013-09-21 20:19:00,62.8,55.1,29.79,West,259,0.0,0.0,76,0.00,,---,1.00,VWS V14.01,2013-09-22 00:19:00,
2013-09-21 20:24:00,62.5,55.2,29.80,West,259,0.0,0.0,77,0.00,,---,1.00,VWS V14.01,2013-09-22 00:24:00,
2013-09-21 20:29:00,62.2,55.3,29.80,West,259,0.0,0.0,78,0.00,,---,1.00,VWS V14.01,2013-09-22 00:29:00,
2013-09-21 20:34:00,61.9,55.3,29.80,West,259,0.0,0.0,79,0.00,,---,1.00,VWS V14.01,2013-09-22 00:34:00,
2013-09-21 20:39:00,61.6,55.4,29.80,West,259,0.0,0.0,80,0.00,,---,1.00,VWS V14.01,2013-09-22 00:39:00,
2013-09-21 20:44:00,61.3,55.1,29.80,WSW,258,0.0,0.0,80,0.00,,---,1.00,VWS V14.01,2013-09-22 00:44:00,
2013-09-21 20:49:00,61.1,54.9,29.80,West,259,0.0,0.0,80,0.00,,---,1.00,VWS V14.01,2013-09-22 00:49:00,
2013-09-21 20:54:00,60.9,54.7,29.80,West,259,0.0,0.0,80,0.00,,---,1.00,VWS V14.01,2013-09-22 00:54:00,
2013-09-21 20:59:00,60.7,54.8,29.80,West,259,0.0,0.0,81,0.00,,---,1.00,VWS V14.01,2013-09-22 00:59:00,
2013-09-21 21:04:00,60.4,54.5,29.80,West,259,0.0,0.0,81,0.00,,---,1.00,VWS V14.01,2013-09-22 01:04:00,
2013-09-21 21:09:00,60.0,53.8,29.80,West,259,0.0,0.0,80,0.00,,---,1.00,VWS V14.01,2013-09-22 01:09:00,
2013-09-21 21:14:00,59.7,54.2,29.80,West,259,0.0,0.0,82,0.00,,---,1.00,VWS V14.01,2013-09-22 01:14:00,
2013-09-21 21:19:00,59.4,54.6,29.80,West,259,0.0,0.0,84,0.00,,---,1.00,VWS V14.01,2013-09-22 01:19:00,
2013-09-21 21:24:00,59.0,54.5,29.80,West,259,0.0,0.0,85,0.00,,---,1.00,VWS V14.01,2013-09-22 01:24:00,
2013-09-21 21:29:00,58.7,54.5,29.80,West,259,0.0,0.0,86,0.00,,---,1.00,VWS V14.01,2013-09-22 01:29:00,
2013-09-21 21:34:00,58.3,53.8,29.80,West,259,0.0,0.0,85,0.00,,---,1.00,VWS V14.01,2013-09-22 01:34:00,
2013-09-21 21:39:00,58.0,53.8,29.80,West,259,0.0,0.0,86,0.00,,---,1.00,VWS V14.01,2013-09-22 01:39:00,
2013-09-21 21:44:00,57.8,54.0,29.81,West,259,0.0,0.0,87,0.00,,---,1.00,VWS V14.01,2013-09-22 01:44:00,
2013-09-21 21:49:00,57.7,54.5,29.81,West,259,0.0,0.0,89,0.00,,---,1.00,VWS V14.01,2013-09-22 01:49:00,
2013-09-21 21:54:00,57.5,54.6,29.81,West,259,0.0,0.0,90,0.00,,---,1.00,VWS V14.01,2013-09-22 01:54:00,
2013-09-21 21:59:00,57.3,54.4,29.81,West,259,0.0,0.0,90,0.00,,---,1.00,VWS V14.01,2013-09-22 01:59:00,
2013-09-21 22:04:00,57.0,54.4,29.81,West,259,0.0,0.0,91,0.00,,---,1.00,VWS V14.01,2013-09-22 02:04:00,
2013-09-21 22:09:00,56.8,54.2,29.82,West,259,0.0,0.0,91,0.00,,---,1.00,VWS V14.01,2013-09-22 02:09:00,
2013-09-21 22:14:00,56.5,53.6,29.82,West,259,0.0,0.0,90,0.00,,---,1.00,VWS V14.01,2013-09-22 02:14:00,
2013-09-21 22:19:00,56.5,53.9,29.82,West,259,0.0,0.0,91,0.00,,---,1.00,VWS V14.01,2013-09-22 02:19:00,
2013-09-21 22:24:00,56.3,53.7,29.82,West,259,0.0,0.0,91,0.00,,---,1.00,VWS V14.01,2013-09-22 02:24:00,
2013-09-21 22:29:00,56.3,53.7,29.82,West,259,0.0,0.0,91,0.00,,---,1.00,VWS V14.01,2013-09-22 02:29:00,
2013-09-21 22:34:00,56.0,53.4,29.83,West,259,0.0,0.0,91,0.00,,---,1.00,VWS V14.01,2013-09-22 02:34:00,
2013-09-21 22:39:00,55.8,53.2,29.83,West,259,0.0,0.0,91,0.00,,---,1.00,VWS V14.01,2013-09-22 02:39:00,
2013-09-21 22:44:00,55.9,53.3,29.83,West,259,0.0,0.0,91,0.00,,---,1.00,VWS V14.01,2013-09-22 02:44:00,
2013-09-21 22:49:00,56.1,53.5,29.83,West,259,0.0,0.0,91,0.00,,---,1.00,VWS V14.01,2013-09-22 02:49:00,
2013-09-21 22:54:00,56.5,53.3,29.83,West,259,0.0,0.0,89,0.00,,---,1.00,VWS V14.01,2013-09-22 02:54:00,
2013-09-21 22:59:00,56.9,52.8,29.83,NNW,327,0.0,0.0,86,0.00,,---,1.00,VWS V14.01,2013-09-22 02:59:00,
2013-09-21 23:04:00,57.5,52.7,29.83,West,266,0.0,1.0,84,0.00,,---,1.00,VWS V14.01,2013-09-22 03:04:00,
2013-09-21 23:09:00,57.8,52.3,29.83,NW,311,0.0,5.0,82,0.00,,---,1.00,VWS V14.01,2013-09-22 03:09:00,
2013-09-21 23:14:00,58.0,52.2,29.83,WSW,255,0.0,5.0,81,0.00,,---,1.00,VWS V14.01,2013-09-22 03:14:00,
2013-09-21 23:19:00,58.0,52.2,29.84,North,355,1.0,5.0,81,0.00,,---,1.00,VWS V14.01,2013-09-22 03:19:00,
2013-09-21 23:24:00,58.0,52.2,29.84,NNE,23,0.0,5.0,81,0.00,,---,1.00,VWS V14.01,2013-09-22 03:24:00,
2013-09-21 23:29:00,57.8,52.0,29.84,WNW,302,1.0,5.0,81,0.00,,---,1.00,VWS V14.01,2013-09-22 03:29:00,
2013-09-21 23:34:00,57.8,52.0,29.84,East,84,0.0,3.0,81,0.00,,---,1.00,VWS V14.01,2013-09-22 03:34:00,
2013-09-21 23:39:00,57.8,52.0,29.84,WSW,239,0.0,7.0,81,0.00,,---,1.00,VWS V14.01,2013-09-22 03:39:00,
2013-09-21 23:44:00,57.7,51.9,29.84,WNW,298,0.0,7.0,81,0.00,,---,1.00,VWS V14.01,2013-09-22 03:44:00,
2013-09-21 23:49:00,57.7,51.6,29.84,NNE,20,0.0,7.0,80,0.00,,---,1.00,VWS V14.01,2013-09-22 03:49:00,
2013-09-21 23:54:00,57.6,51.5,29.84,NNW,333,3.0,7.0,80,0.00,,---,1.00,VWS V14.01,2013-09-22 03:54:00,
2013-09-21 23:59:00,57.6,51.8,29.84,NE,34,0.0,7.0,81,0.00,,---,1.00,VWS V14.01,2013-09-22 03:59:00,